This demonstration page uses our WeatherBlox Daily Observations layout. Learn more.

Left ArrowRight Arrow

Hourly Observations for August 28, 2016

Temp ( °F °C ) Dew Point ( °F °C ) Humidity (%) Winds ( mph kmh ) Pressure ( in mb ) Visibility ( mi km ) Precip ( " mm )
12:15 am 00:15 Clear 73 23 70 21 89 89 Calm 30.21 1023 10 16 0.00 0.00
12:35 am 00:35 Clear 72 22 70 21 94 94 SSW 3 6 30.21 1023 10 16 0.00 0.00
12:55 am 00:55 Clear 70 21 68 20 94 94 W 5 7 30.21 1023 10 16 0.00 0.00
1:15 am 01:15 Clear 70 21 70 21 100 100 W 3 6 30.21 1023 10 16 0.00 0.00
1:35 am 01:35 Clear 70 21 70 21 100 100 Calm 30.21 1023 10 16 0.00 0.00
1:55 am 01:55 Clear 70 21 70 21 100 100 W 3 6 30.21 1023 10 16 0.00 0.00
2:15 am 02:15 Clear 70 21 70 21 100 100 WNW 6 9 30.21 1023 10 16 0.00 0.00
2:35 am 02:35 Clear 70 21 70 21 100 100 S 3 6 30.21 1023 10 16 0.00 0.00
2:55 am 02:55 Clear 70 21 68 20 94 94 Calm 30.21 1023 10 16 0.00 0.00
3:15 am 03:15 Clear 70 21 68 20 94 94 Calm 30.21 1023 10 16 0.00 0.00
3:35 am 03:35 Clear 68 20 68 20 100 100 Calm 30.21 1023 10 16 0.00 0.00
3:55 am 03:55 Clear 68 20 68 20 100 100 NW 6 9 30.24 1024 10 16 0.00 0.00
4:15 am 04:15 Clear 70 21 70 21 100 100 S 3 6 30.24 1024 10 16 0.00 0.00
4:35 am 04:35 Clear 70 21 68 20 94 94 N 3 6 30.24 1024 10 16 0.00 0.00
4:55 am 04:55 Clear 68 20 68 20 100 100 Calm 30.24 1024 10 16 0.00 0.00
5:15 am 05:15 Clear 68 20 68 20 100 100 Calm 30.24 1024 10 16 0.00 0.00
5:35 am 05:35 Clear 68 20 68 20 100 100 Calm 30.24 1024 10 16 0.00 0.00
5:55 am 05:55 Clear 66 19 66 19 100 100 Calm 30.24 1024 10 16 0.00 0.00
6:15 am 06:15 Clear 68 20 68 20 100 100 NNW 5 7 30.24 1024 10 16 0.00 0.00
6:35 am 06:35 Clear 68 20 68 20 100 100 NW 5 7 30.24 1024 10 16 0.00 0.00
6:55 am 06:55 Sunny 68 20 68 20 100 100 Calm 30.27 1025 10 16 0.00 0.00
7:15 am 07:15 Sunny 70 21 70 21 100 100 NW 5 7 30.27 1025 10 16 0.00 0.00
7:35 am 07:35 Sunny 70 21 70 21 100 100 WNW 6 9 30.27 1025 10 16 0.00 0.00
7:55 am 07:55 Sunny 72 22 72 22 100 100 N 5 7 30.27 1025 10 16 0.00 0.00
8:15 am 08:15 Partly Cloudy 72 22 72 22 100 100 ENE 3 6 30.27 1025 7 11 0.00 0.00
8:35 am 08:35 Mostly Cloudy 73 23 72 22 94 94 SE 3 6 30.27 1025 7 11 0.00 0.00
8:55 am 08:55 Cloudy 73 23 72 22 94 94 N 3 6 30.27 1025 7 11 0.00 0.00
9:15 am 09:15 Cloudy 73 23 73 23 100 100 N 3 6 30.27 1025 10 16 0.00 0.00
9:35 am 09:35 Cloudy 77 25 73 23 89 89 Calm 30.27 1025 10 16 0.00 0.00
9:55 am 09:55 Mostly Cloudy 79 26 73 23 84 84 Calm 30.27 1025 10 16 0.00 0.00
10:15 am 10:15 Cloudy 81 27 73 23 79 79 NW 5 7 30.27 1025 10 16 0.00 0.00
10:35 am 10:35 Mostly Cloudy 81 27 73 23 79 79 E 3 6 30.27 1025 10 16 0.00 0.00
10:55 am 10:55 Partly Cloudy 81 27 72 22 74 74 Calm 30.27 1025 10 16 0.00 0.00
11:15 am 11:15 Partly Cloudy 81 27 72 22 74 74 E 3 6 30.27 1025 10 16 0.00 0.00
11:35 am 11:35 Partly Cloudy 82 28 72 22 70 70 SE 3 6 30.27 1025 10 16 0.00 0.00
11:55 am 11:55 Partly Cloudy 84 29 72 22 66 66 E 5 7 30.27 1025 10 16 0.00 0.00
12:15 pm 12:15 Partly Cloudy 86 30 70 21 59 59 Calm 30.27 1025 10 16 0.00 0.00
12:35 pm 12:35 Sunny 86 30 70 21 59 59 E 5 7 30.24 1024 10 16 0.00 0.00
12:55 pm 12:55 Partly Cloudy 86 30 70 21 59 59 Calm 30.24 1024 10 16 0.00 0.00
1:15 pm 13:15 Partly Cloudy 88 31 70 21 55 55 ESE 3 6 30.24 1024 10 16 0.00 0.00
1:35 pm 13:35 Sunny 88 31 70 21 55 55 SE 7 11 30.24 1024 10 16 0.00 0.00
1:55 pm 13:55 Partly Cloudy 88 31 68 20 52 52 E 5 7 30.24 1024 10 16 0.00 0.00
2:15 pm 14:15 Partly Cloudy 90 32 70 21 52 52 NE 6 9 30.24 1024 10 16 0.00 0.00
2:35 pm 14:35 Partly Cloudy 90 32 70 21 52 52 ESE 5 7 30.24 1024 10 16 0.00 0.00
2:55 pm 14:55 Partly Cloudy 90 32 70 21 52 52 E 7 11 30.21 1023 10 16 0.00 0.00
3:15 pm 15:15 Sunny 90 32 70 21 52 52 E 5 7 30.21 1023 10 16 0.00 0.00
3:35 pm 15:35 Sunny 90 32 68 20 49 49 ENE 6 9 30.21 1023 10 16 0.00 0.00
3:55 pm 15:55 Sunny 90 32 68 20 49 49 ENE 5 7 30.18 1022 10 16 0.00 0.00
4:15 pm 16:15 Sunny 90 32 68 20 49 49 E 8 13 30.18 1022 10 16 0.00 0.00
4:35 pm 16:35 Sunny 90 32 66 19 46 46 NE 5 7 30.18 1022 10 16 0.00 0.00
4:55 pm 16:55 Sunny 90 32 66 19 46 46 E 7 11 30.18 1022 10 16 0.00 0.00
5:15 pm 17:15 Sunny 90 32 64 18 43 43 SE 6 9 30.12 1020 10 16 0.00 0.00
5:35 pm 17:35 Sunny 90 32 66 19 46 46 NE 8 13 30.12 1020 10 16 0.00 0.00
5:55 pm 17:55 Sunny 90 32 64 18 43 43 E 6 9 30.12 1020 10 16 0.00 0.00
6:15 pm 18:15 Sunny 88 31 64 18 46 46 NE 6 9 30.15 1021 10 16 0.00 0.00
6:35 pm 18:35 Sunny 88 31 64 18 46 46 ESE 5 7 30.15 1021 10 16 0.00 0.00
6:55 pm 18:55 Sunny 86 30 63 17 46 46 E 7 11 30.15 1021 10 16 0.00 0.00
7:15 pm 19:15 Sunny 86 30 63 17 46 46 ESE 5 7 30.15 1021 10 16 0.00 0.00
7:35 pm 19:35 Sunny 86 30 63 17 46 46 ESE 3 6 30.15 1021 10 16 0.00 0.00
7:55 pm 19:55 Clear 84 29 63 17 48 48 SE 3 6 30.15 1021 10 16 0.00 0.00
8:15 pm 20:15 Clear 84 29 63 17 48 48 SSE 7 11 30.15 1021 10 16 0.00 0.00
8:35 pm 20:35 Clear 82 28 64 18 55 55 SSE 5 7 30.15 1021 10 16 0.00 0.00
8:55 pm 20:55 Clear 82 28 64 18 55 55 SSE 6 9 30.15 1021 10 16 0.00 0.00
9:15 pm 21:15 Clear 81 27 66 19 62 62 S 6 9 30.18 1022 10 16 0.00 0.00
9:35 pm 21:35 Clear 77 25 68 20 74 74 SSW 10 17 30.18 1022 10 16 0.00 0.00
9:55 pm 21:55 Clear 79 26 66 19 65 65 SSW 10 17 30.21 1023 10 16 0.00 0.00
10:15 pm 22:15 Clear 77 25 68 20 74 74 NW 8 13 30.21 1023 10 16 0.00 0.00
10:35 pm 22:35 Clear 77 25 66 19 69 69 WNW 7 11 30.21 1023 10 16 0.00 0.00
10:55 pm 22:55 Clear 73 23 68 20 83 83 W 6 9 30.21 1023 10 16 0.00 0.00
11:15 pm 23:15 Clear 73 23 68 20 83 83 WNW 9 15 30.24 1024 10 16 0.00 0.00
11:35 pm 23:35 Clear 72 22 68 20 88 88 Calm 30.21 1023 10 16 0.00 0.00
11:55 pm 23:55 Clear 73 23 68 20 83 83 W 3 6 30.21 1023 10 16 0.00 0.00

Powered by AerisWeather